Stations météo

réclame
Mon MeteoGroup
Essen-Bredeney, Allemagne (10410): Température de l'air & dewpoint: 13.07.2019 08:00:00 - 19.07.2019 08:00:00 (CEST)Essen-Bredeney, Allemagne (10410): Température de l'air 5cm & Température de l'air -5cm: 13.07.2019 08:00:00 - 19.07.2019 08:00:00 (CEST)Essen-Bredeney, Allemagne (10410): Température de l'air -20cm & Température de l'air -100cm: 13.07.2019 08:00:00 - 19.07.2019 08:00:00 (CEST)Essen-Bredeney, Allemagne (10410): Vitesse du vent & gusts: 13.07.2019 08:00:00 - 19.07.2019 08:00:00 (CEST)Essen-Bredeney, Allemagne (10410): Direction du vent: 13.07.2019 08:00:00 - 19.07.2019 08:00:00 (CEST)Essen-Bredeney, Allemagne (10410): reduced air pressure: 13.07.2019 08:00:00 - 19.07.2019 08:00:00 (CEST)Essen-Bredeney, Allemagne (10410): visibility: 13.07.2019 08:00:00 - 19.07.2019 08:00:00 (CEST)Essen-Bredeney, Allemagne (10410): Ensoleillement: 13.07.2019 08:00:00 - 19.07.2019 08:00:00 (CEST)Essen-Bredeney, Allemagne (10410): Quantités de précipitations: 13.07.2019 08:00:00 - 19.07.2019 08:00:00 (CEST)
Date & Time tt [°C] td [°C] tt 5cm [°C] tt -5cm [°C] tt -20cm [°C] tt -100cm [°C] ff [km/h] ff [knt] fx [km/h] fx [knt] dd ppp [hPa] vv [km] sd [min] rr [mm]
19.07.2019 08:00:00 17,6 15,0 18,6 19,7 19,9 18,1 8 4 15 8 SW 1013,8 34 5 0,0
19.07.2019 07:00:00 17,3 14,7 17,2 19,3 20,0 18,1 7 4 14 7 SSW 1013,2 36 0 0,0
19.07.2019 06:00:00 17,5 14,3 17,3 19,2 20,2 18,1 8 4 12 7 SW 1013,3 42 0 0,0
19.07.2019 05:00:00 17,4 14,0 17,0 19,2 20,4 18,1 7 4 13 7 SW 1013,2 49 0 0,0
19.07.2019 04:00:00 16,9 13,6 15,9 19,3 20,7 18,1 7 4 10 5 SW 1013,1 47 0 0,0
19.07.2019 03:00:00 16,9 13,4 14,0 19,6 21,0 18,1 5 3 9 5 WSW 1013,1 52 0 0,0
19.07.2019 02:00:00 18,0 13,3 16,8 20,4 21,2 18,1 6 3 19 10 WSW 1013,0 59 0 0,0
19.07.2019 01:00:00 18,7 13,6 17,8 21,0 21,5 18,1 10 6 18 10 WSW 1013,0 48 0 0,0
19.07.2019 00:00:00 19,5 13,6 19,0 21,5 21,7 18,1 9 5 29 15 W 1012,6 44 0 0,0
18.07.2019 23:00:00 20,0 12,4 19,5 22,0 22,0 18,1 6 4 13 7 SSW 1012,2 53 0 0,0
18.07.2019 22:00:00 20,4 11,7 19,5 22,7 22,2 18,1 7 4 12 6 WSW 1011,9 52 0 0,0
18.07.2019 21:00:00 21,3 10,5 20,8 23,5 22,4 18,1 8 5 23 12 WSW 1011,4 67 0 0,0
18.07.2019 20:00:00 22,4 10,5 22,5 24,8 22,5 18,1 12 7 25 14 W 1011,1 50 0 0,0
18.07.2019 19:00:00 23,5 11,3 24,8 25,7 22,4 18,1 11 6 27 15 W 1010,8 48 3 0,0
18.07.2019 18:00:00 23,6 11,7 24,9 26,5 22,3 18,1 16 8 31 17 WSW 1010,8 56 3 0,0
18.07.2019 17:00:00 24,5 11,5 28,5 26,6 22,1 18,1 12 7 33 18 WSW 1010,7 66 4 0,0
18.07.2019 16:00:00 22,7 11,6 25,3 27,1 21,8 18,1 16 9 39 21 SW 1011,1 49 2 0,0
18.07.2019 15:00:00 24,5 10,5 27,7 28,4 21,3 18,1 21 11 35 19 WSW 1010,9 75 30 0,0
18.07.2019 14:00:00 25,2 11,0 30,3 29,3 20,5 18,1 18 10 33 18 WSW 1010,9 68 59 0,0
18.07.2019 13:00:00 24,2 10,3 29,1 27,6 19,7 18,1 12 6 25 13 SW 1011,1 47 49 0,0
18.07.2019 12:00:00 23,3 10,1 28,9 25,9 18,9 18,1 13 7 22 12 SSW 1011,3 46 56 0,0
18.07.2019 11:00:00 21,7 10,7 26,0 23,2 18,4 18,1 11 6 17 9 S 1011,5 54 57 0,0
18.07.2019 10:00:00 19,2 11,4 21,6 20,2 18,1 18,1 9 5 15 8 S 1011,8 38 21 0,0
18.07.2019 09:00:00 17,5 12,2 18,8 18,3 17,9 18,1 6 3 12 6 S 1012,0 39 12 0,0
18.07.2019 08:00:00 16,6 11,9 17,0 17,4 18,0 18,1 6 4 8 5 SE 1012,1 36 45 0,0
18.07.2019 07:00:00 14,5 11,5 13,6 16,3 18,1 18,1 6 3 13 7 SSE 1012,3 26 0 0,0
18.07.2019 06:00:00 13,9 11,0 12,5 16,1 18,3 18,1 11 6 14 8 SSE 1012,6 25 0 0,0
18.07.2019 05:00:00 13,0 11,4 10,8 16,3 18,6 18,1 5 3 6 4 SSE 1012,6 21 0 0,0
18.07.2019 04:00:00 14,4 11,5 11,6 16,5 18,9 18,1 4 2 5 3 ESE 1012,9 25 0 0,0
18.07.2019 03:00:00 13,8 11,7 10,5 16,8 19,2 18,2 4 2 8 4 SE 1013,3 22 0 0,0
18.07.2019 02:00:00 14,8 11,7 12,3 17,4 19,5 18,2 5 3 10 5 ESE 1013,5 26 0 0,0
18.07.2019 01:00:00 14,9 11,8 12,0 17,9 19,9 18,2 5 3 9 5 ESE 1013,5 26 0 0,0
18.07.2019 00:00:00 15,5 12,1 12,7 18,7 20,2 18,2 8 4 13 7 ESE 1013,8 34 0 0,0
17.07.2019 23:00:00 16,1 12,0 13,9 19,6 20,6 18,2 8 4 11 6 ESE 1013,8 45 0 0,0
17.07.2019 22:00:00 17,5 12,0 15,4 20,8 20,8 18,2 8 4 13 7 E 1013,9 45 0 0,0
17.07.2019 21:00:00 19,5 11,8 18,9 22,2 20,9 18,2 8 4 14 8 E 1013,5 48 12 0,0
17.07.2019 20:00:00 20,8 11,0 22,3 23,5 20,8 18,2 5 3 13 7 SE 1013,5 50 60 0,0
17.07.2019 19:00:00 21,2 11,1 24,4 24,3 20,6 18,2 5 3 10 5 ESE 1013,7 33 29 0,0
17.07.2019 18:00:00 20,9 11,3 23,7 24,6 20,3 18,2 4 2 11 6 NE 1014,2 39 6 0,0
17.07.2019 17:00:00 20,7 11,4 23,5 27,1 19,6 18,2 6 4 16 9 S 1014,6 34 47 0,0
17.07.2019 16:00:00 20,1 10,2 26,1 25,2 19,0 18,2 6 3 14 8 ENE 1015,1 34 26 0,0
17.07.2019 15:00:00 19,4 11,4 23,8 23,0 18,5 18,3 4 2 11 6 SSW 1015,5 31 0 0,0
17.07.2019 14:00:00 18,4 11,0 22,0 22,4 18,1 18,3 5 3 11 6 NNE 1016,1 23 0 0,0
17.07.2019 13:00:00 17,3 11,4 20,3 20,1 17,8 18,3 5 3 9 5 SSW 1016,4 14 0 0,0
17.07.2019 12:00:00 16,6 11,8 19,0 19,0 17,6 18,3 3 2 8 4 S 1016,5 16 0 0,0
17.07.2019 11:00:00 15,9 12,4 17,4 18,2 17,4 18,3 4 2 8 5 S 1016,4 17 0 0,0
17.07.2019 10:00:00 15,3 12,2 16,6 17,5 17,3 18,3 4 2 6 3 SSE 1016,6 18 0 0,0
17.07.2019 09:00:00 15,0 12,4 16,0 16,9 17,3 18,3 4 2 9 5 E 1016,6 17 0 0,0
17.07.2019 08:00:00 14,5 12,4 15,0 16,4 17,3 18,3 4 2 8 5 NE 1016,5 16 0 0,0
17.07.2019 07:00:00 13,9 12,2 13,9 16,2 17,4 18,3 3 1 5 3 E 1016,6 17 0 0,0
17.07.2019 06:00:00 13,5 11,8 13,4 16,0 17,5 18,3 3 2 7 4 E 1016,9 16 0 0,0
17.07.2019 05:00:00 13,0 11,4 12,9 15,8 17,7 18,3 3 2 8 4 E 1016,8 13 0 0,0
17.07.2019 04:00:00 12,8 11,4 11,4 15,4 17,9 18,4 3 2 8 4 E 1017,0 15 0 0,0
17.07.2019 03:00:00 12,7 11,3 9,0 15,6 18,2 18,4 4 2 8 5 E 1017,3 15 0 0,0
17.07.2019 02:00:00 13,5 11,5 10,8 16,1 18,5 18,4 5 3 9 5 ENE 1017,5 23 0 0,0
17.07.2019 01:00:00 13,8 11,5 11,2 16,7 18,9 18,4 7 4 11 6 ENE 1017,7 24 0 0,0
17.07.2019 00:00:00 14,4 11,4 12,0 17,4 19,2 18,4 8 5 11 6 NE 1017,7 26 0 0,0
16.07.2019 23:00:00 15,2 11,4 12,8 18,5 19,4 18,4 7 4 9 5 NE 1017,8 26 0 0,0
16.07.2019 22:00:00 16,0 11,2 14,8 19,2 19,6 18,4 6 3 9 5 NNE 1017,7 21 0 0,0
16.07.2019 21:00:00 17,2 10,9 16,6 20,6 19,6 18,4 5 3 12 7 N 1017,7 18 0 0,0
16.07.2019 20:00:00 17,9 10,6 19,1 21,6 19,5 18,4 7 4 11 6 N 1017,7 19 14 0,0
16.07.2019 19:00:00 18,4 10,5 20,4 22,8 19,2 18,5 6 3 14 7 NW 1017,8 18 41 0,0
16.07.2019 18:00:00 17,9 10,3 21,0 22,6 18,9 18,5 7 4 14 8 NNW 1018,1 35 2 0,0
16.07.2019 17:00:00 17,8 10,6 20,3 23,2 18,4 18,5 9 5 18 10 NNW 1018,6 36 21 0,0
16.07.2019 16:00:00 16,9 10,0 21,3 21,6 18,0 18,5 10 5 16 9 W 1018,8 32 2 0,0
16.07.2019 15:00:00 16,1 9,9 19,2 20,2 17,6 18,5 9 5 16 9 W 1019,1 20 0 0,0
16.07.2019 14:00:00 15,4 9,9 17,7 19,0 17,4 18,5 10 5 16 9 WSW 1019,3 30 0 0,0
16.07.2019 13:00:00 14,6 9,7 16,1 18,0 17,2 18,5 8 4 16 9 W 1019,7 31 0 0,0
16.07.2019 12:00:00 14,3 9,9 15,8 17,4 17,1 18,5 8 4 18 10 W 1019,7 67 0 0,0
16.07.2019 11:00:00 13,8 10,2 14,8 16,7 17,0 18,5 8 4 15 8 W 1019,7 44 0 0,0
16.07.2019 10:00:00 13,0 11,2 13,9 16,3 17,0 18,5 6 3 10 5 WSW 1019,6 29 0 0,0
16.07.2019 09:00:00 12,3 11,1 13,0 16,0 17,0 18,5 7 4 9 5 WSW 1019,6 24 0 0,0
16.07.2019 08:00:00 12,3 11,5 12,5 15,7 17,0 18,6 4 2 9 5 SW 1019,5 16 0 0,0
16.07.2019 07:00:00 12,1 10,4 12,1 15,4 17,1 18,6 5 3 11 6 WNW 1019,4 15 0 0,0
16.07.2019 06:00:00 12,0 9,8 12,1 15,1 17,2 18,6 3 2 7 4 N 1019,1 40 0 0,0
16.07.2019 05:00:00 11,6 9,6 11,4 14,8 17,4 18,6 4 2 7 4 NNW 1019,3 41 0 0,0
16.07.2019 04:00:00 10,7 9,2 9,2 14,7 17,7 18,6 3 2 9 5 N 1019,6 31 0 0,0
16.07.2019 03:00:00 11,1 9,0 7,4 14,9 18,0 18,6 5 3 9 5 NNW 1019,9 43 0 0,0
16.07.2019 02:00:00 11,7 9,1 9,0 15,4 18,3 18,6 5 3 10 5 NNW 1019,8 43 0 0,0
16.07.2019 01:00:00 12,5 9,1 10,4 16,2 18,6 18,6 6 4 15 8 N 1019,7 53 0 0,0
16.07.2019 00:00:00 13,7 9,2 12,0 17,0 18,8 18,6 9 5 20 11 NNW 1019,6 66 0 0,0
15.07.2019 23:00:00 15,2 9,9 13,0 18,0 19,0 18,6 4 2 11 6 NW 1019,3 54 0 0,0
15.07.2019 22:00:00 15,6 9,9 14,9 18,6 19,1 18,6 4 2 9 5 WSW 1019,3 50 0 0,0
15.07.2019 21:00:00 16,5 9,7 16,4 19,5 19,2 18,6 5 3 11 6 W 1019,0 56 0 0,0
15.07.2019 20:00:00 16,8 9,1 17,5 20,2 19,1 18,7 5 3 13 7 WNW 1019,0 56 2 0,0
15.07.2019 19:00:00 16,8 9,5 18,3 20,4 18,9 18,7 6 3 15 8 NNW 1019,3 50 0 0,0
15.07.2019 18:00:00 16,4 9,8 18,0 20,3 18,8 18,7 7 4 16 9 WNW 1019,6 44 2 0,0
15.07.2019 17:00:00 15,3 10,1 16,3 19,7 18,7 18,7 10 5 19 10 NW 1020,0 41 0 0,0
15.07.2019 16:00:00 15,1 9,4 16,5 19,5 18,6 18,7 6 4 18 10 NW 1020,0 49 0 0,0
15.07.2019 15:00:00 15,0 9,6 16,6 19,4 18,4 18,7 9 5 18 10 N 1020,1 49 0 0,0
15.07.2019 14:00:00 14,9 9,2 16,5 19,5 18,3 18,7 7 4 16 8 NW 1020,1 56 0 0,0
15.07.2019 13:00:00 14,1 9,0 15,5 19,2 18,1 18,7 9 5 17 9 NNW 1020,3 56 0 0,0
15.07.2019 12:00:00 14,0 9,3 16,1 18,4 17,9 18,7 10 5 16 9 N 1020,3 44 0 0,0
15.07.2019 11:00:00 13,8 9,2 15,3 17,8 17,9 18,7 6 4 14 8 N 1020,3 52 0 0,0
15.07.2019 10:00:00 13,4 9,8 14,5 17,1 17,8 18,7 8 4 15 8 NNW 1020,2 49 0 0,0
15.07.2019 09:00:00 13,2 9,8 13,9 16,7 17,8 18,7 9 5 15 8 N 1020,1 37 0 0,0
15.07.2019 08:00:00 12,9 9,7 13,4 16,2 17,9 18,7 5 3 11 6 N 1020,0 30 0 0,0
15.07.2019 07:00:00 12,5 9,5 12,7 15,9 18,1 18,7 6 3 9 5 NNW 1019,7 32 0 0,0
15.07.2019 06:00:00 12,2 9,6 12,0 15,4 18,3 18,7 5 3 9 5 N 1019,6 25 0 0,0
15.07.2019 05:00:00 11,4 9,4 8,5 15,3 18,6 18,7 6 3 9 5 N 1019,5 27 0 0,0
15.07.2019 04:00:00 11,5 9,4 8,8 15,9 19,0 18,7 5 3 10 5 N 1019,9 34 0 0,0
15.07.2019 03:00:00 12,2 9,4 9,7 16,5 19,3 18,7 6 3 12 7 N 1020,1 39 0 0,0
15.07.2019 02:00:00 13,0 9,4 10,6 17,5 19,5 18,7 6 3 17 9 N 1020,1 47 0 0,0
15.07.2019 01:00:00 14,4 9,9 14,2 18,3 19,7 18,7 10 5 22 12 N 1020,1 52 0 0,0
15.07.2019 00:00:00 15,3 10,5 15,2 18,7 19,9 18,7 14 7 24 13 N 1020,0 60 0 0,0
14.07.2019 23:00:00 16,0 10,9 15,8 19,1 20,1 18,8 11 6 25 13 N 1019,8 69 0 0,0
14.07.2019 22:00:00 16,3 11,3 16,1 19,5 20,3 18,8 9 5 18 10 N 1019,5 70 0 0,0
14.07.2019 21:00:00 16,6 11,0 16,7 20,1 20,4 18,8 6 3 17 9 N 1019,3 75 0 0,0
14.07.2019 20:00:00 16,8 11,0 17,0 20,5 20,6 18,8 9 5 19 10 NNW 1019,4 59 0 0,0
14.07.2019 19:00:00 16,9 10,7 17,2 21,3 20,6 18,8 9 5 17 9 NNW 1019,2 68 0 0,0
14.07.2019 18:00:00 17,3 10,1 18,3 22,1 20,5 18,8 10 6 22 12 N 1019,3 72 0 0,0
14.07.2019 17:00:00 17,4 9,7 19,4 23,4 20,3 18,8 14 7 29 16 N 1019,4 71 2 0,0
14.07.2019 16:00:00 17,3 9,7 20,2 23,0 20,1 18,8 14 7 24 13 N 1019,6 66 0 0,0
14.07.2019 15:00:00 16,2 9,8 19,1 21,7 19,9 18,8 11 6 21 11 N 1019,9 58 0 0,0
14.07.2019 14:00:00 15,7 9,4 17,7 21,8 19,6 18,8 11 6 22 12 N 1020,1 60 0 0,0
14.07.2019 13:00:00 15,7 9,0 18,5 21,9 19,3 18,8 13 7 23 13 N 1020,1 59 0 0,0
14.07.2019 12:00:00 15,1 8,4 18,0 20,4 19,1 18,8 12 6 21 12 N 1020,1 51 0 0,0
14.07.2019 11:00:00 14,2 10,1 16,1 19,6 19,0 18,8 11 6 20 11 N 1020,2 52 4 0,0
14.07.2019 10:00:00 14,4 9,0 16,2 18,6 18,9 18,8 11 6 19 10 NNW 1019,9 46 0 0,0
14.07.2019 09:00:00 13,9 8,3 15,1 17,8 19,0 18,8 7 4 19 11 N 1019,7 46 0 0,0
14.07.2019 08:00:00 13,5 8,1 14,3 17,4 19,2 18,8 9 5 21 12 N 1019,5 52 0 0,0
14.07.2019 07:00:00 12,8 8,1 12,4 16,9 19,4 18,8 10 5 19 10 NNW 1019,4 48 0 0,0
14.07.2019 06:00:00 12,8 8,6 12,1 17,4 19,6 18,8 10 5 22 12 N 1019,4 42 0 0,0
14.07.2019 05:00:00 13,5 9,5 13,5 17,9 19,9 18,8 12 6 19 11 NNW 1019,4 50 0 0,0
14.07.2019 04:00:00 14,1 10,7 14,1 18,2 20,1 18,8 9 5 19 10 NNW 1019,4 50 0 0,0
14.07.2019 03:00:00 14,6 10,0 14,5 18,5 20,4 18,8 8 4 16 8 N 1019,5 64 0 0,0
14.07.2019 02:00:00 14,5 10,8 14,5 18,8 20,6 18,8 10 5 23 12 NNW 1019,6 50 0 0,0
14.07.2019 01:00:00 14,6 11,3 14,6 19,2 21,0 18,8 14 7 24 13 NNW 1019,8 38 0 0,0
14.07.2019 00:00:00 15,0 11,6 14,7 19,4 21,3 18,8 9 5 24 13 NNW 1019,7 47 0 0,0
13.07.2019 23:00:00 15,6 11,0 14,9 20,2 21,7 18,8 16 8 29 16 NNW 1019,5 51 0 0,0
13.07.2019 22:00:00 17,2 12,0 16,9 21,4 22,0 18,8 14 8 27 15 NNW 1018,9 56 0 0,0
13.07.2019 21:00:00 17,9 13,3 17,9 22,6 22,1 18,8 16 9 33 18 NNW 1018,2 67 0 0,0
13.07.2019 20:00:00 19,1 12,6 20,0 23,8 22,2 18,8 12 6 26 14 NNW 1017,7 75 3 0,0
13.07.2019 19:00:00 19,1 12,8 20,2 25,1 22,1 18,8 18 10 31 17 NNW 1017,6 75 16 0,0
13.07.2019 18:00:00 20,3 12,8 22,6 26,0 21,9 18,8 15 8 30 16 NNW 1017,4 75 20 0,0
13.07.2019 17:00:00 20,9 11,6 23,5 26,3 21,4 18,8 11 6 24 13 N 1017,5 63 11 0,0
13.07.2019 16:00:00 21,7 11,1 26,8 28,1 20,8 18,8 10 5 24 13 NNW 1017,5 72 41 0,0
13.07.2019 15:00:00 20,0 11,6 23,0 26,0 20,2 18,8 11 6 22 12 N 1017,8 75 27 0,0
13.07.2019 14:00:00 19,4 12,0 22,6 24,6 19,7 18,8 13 7 24 13 NW 1018,0 46 21 0,0
13.07.2019 13:00:00 18,5 12,3 21,7 22,1 19,4 18,8 11 6 27 15 NW 1018,0 63 17 0,0
13.07.2019 12:00:00 17,0 12,4 18,5 20,3 19,2 18,8 13 7 23 13 NNW 1018,1 62 1 0,0
13.07.2019 11:00:00 15,7 14,3 15,9 19,0 19,2 18,8 7 4 14 8 NNW 1017,8 16 1 0,0
13.07.2019 10:00:00 15,2 13,5 15,1 18,5 19,2 18,8 12 6 27 15 NNW 1017,4 20 0 0,2
13.07.2019 09:00:00 15,4 14,6 15,8 18,4 19,3 18,8 11 6 18 10 NW 1016,8 6 0 0,0
13.07.2019 08:00:00 15,3 14,7 15,3 18,1 19,4 18,8 9 5 17 9 NNW 1016,3 7 0 0,1

tt = Température de l'air
td = dewpoint
tt 5cm = Température de l'air 5cm
tt -5cm = Température de l'air -5cm
tt -20cm = Température de l'air -20cm
tt -100cm = Température de l'air -100cm
ff = Vitesse du vent
fx = gusts
dd = Direction du vent
ppp = reduced air pressure
vv = visibility
sd = Ensoleillement
rr = Quantités de précipitations

stations d'obs. à proximité